TimePDT,TemperatureF,Dew PointF,Humidity,Sea Level PressureIn,VisibilityMPH,Wind Direction,Wind SpeedMPH,Gust SpeedMPH,PrecipitationIn,Events,Conditions,WindDirDegrees,DateUTC
12:53 AM,55.9,37.9,51,29.98,10.0,NW,6.9,-,N/A,,Clear,320,2013-09-27 07:53:00
1:53 AM,57.0,37.0,47,29.99,10.0,NW,10.4,-,N/A,,Clear,320,2013-09-27 08:53:00
2:53 AM,55.0,37.0,51,30.01,10.0,NNW,9.2,-,N/A,,Clear,340,2013-09-27 09:53:00
3:53 AM,54.0,37.0,53,30.01,10.0,NNW,6.9,-,N/A,,Clear,340,2013-09-27 10:53:00
4:53 AM,53.1,37.0,55,30.01,10.0,NW,10.4,-,N/A,,Clear,320,2013-09-27 11:53:00
5:53 AM,53.1,37.0,55,30.03,10.0,NW,8.1,-,N/A,,Clear,320,2013-09-27 12:53:00
6:53 AM,52.0,37.0,57,30.05,10.0,NNW,8.1,-,N/A,,Clear,340,2013-09-27 13:53:00
7:53 AM,55.0,37.9,53,30.07,10.0,NNW,6.9,-,N/A,,Clear,330,2013-09-27 14:53:00
8:53 AM,59.0,37.9,46,30.08,10.0,North,9.2,-,N/A,,Clear,350,2013-09-27 15:53:00
9:53 AM,64.9,37.0,36,30.09,10.0,NNW,9.2,-,N/A,,Clear,340,2013-09-27 16:53:00
10:53 AM,68.0,37.9,33,30.09,10.0,North,9.2,-,N/A,,Clear,360,2013-09-27 17:53:00
11:53 AM,73.0,36.0,26,30.09,10.0,North,9.2,-,N/A,,Clear,360,2013-09-27 18:53:00
12:53 PM,75.9,36.0,23,30.07,10.0,North,9.2,18.4,N/A,,Clear,350,2013-09-27 19:53:00
1:53 PM,77.0,33.1,20,30.05,10.0,NNW,11.5,-,N/A,,Clear,330,2013-09-27 20:53:00
2:53 PM,79.0,28.9,16,30.03,10.0,NW,8.1,-,N/A,,Clear,310,2013-09-27 21:53:00
3:53 PM,79.0,30.0,17,30.02,10.0,North,5.8,-,N/A,,Clear,350,2013-09-27 22:53:00
4:53 PM,79.0,27.0,15,30.01,10.0,NW,8.1,-,N/A,,Clear,310,2013-09-27 23:53:00
5:53 PM,77.0,32.0,19,30.01,10.0,NNW,4.6,-,N/A,,Clear,330,2013-09-28 00:53:00
6:53 PM,71.1,35.1,27,30.01,10.0,Calm,Calm,-,N/A,,Clear,0,2013-09-28 01:53:00
7:53 PM,64.0,37.9,38,30.01,10.0,Calm,Calm,-,N/A,,Clear,0,2013-09-28 02:53:00
8:53 PM,60.1,41.0,49,30.03,10.0,Calm,Calm,-,N/A,,Clear,0,2013-09-28 03:53:00
9:53 PM,57.9,42.1,56,30.03,10.0,Calm,Calm,-,N/A,,Clear,0,2013-09-28 04:53:00
10:53 PM,55.9,41.0,57,30.04,10.0,Calm,Calm,-,N/A,,Clear,0,2013-09-28 05:53:00
11:53 PM,54.0,39.9,59,30.04,10.0,Calm,Calm,-,N/A,,Clear,0,2013-09-28 06:53:00